Weather History for KMAN - March, 2013

Change the Weather History Date:

Tuesday, March 19, 2013

  Actual Average (KBOI) Record (KBOI)
Temperature  
Mean Temperature 38 °F 45 °F  
Max Temperature 59 °F 56 °F 80 °F (1997)
Min Temperature 17 °F 35 °F 9 °F (1965)
Degree Days  
Heating Degree Days 27 20  
Month to date heating degree days 417  
Since 1 July heating degree days 4576  
Cooling Degree Days 0 0  
Month to date cooling degree days 0  
Year to date cooling degree days 0  
Moisture  
Dew Point 11 °F    
Average Humidity 40    
Maximum Humidity 93    
Minimum Humidity 10    
Precipitation  
Precipitation 0.00 in 0.05 in 0.57 in (1932)
Month to date precipitation 0.83  
Year to date precipitation 3.06  
Snow  
Snow 0.00 in 0.00 in 2.90 in (1982)
Month to date snowfall 0.9  
Since 1 July snowfall 18.5  
Snow Depth -    
Sea Level Pressure  
Sea Level Pressure 30.12 in    
Wind  
Wind Speed 5 mph (SE)    
Max Wind Speed 17 mph    
Max Gust Speed 21 mph    
Visibility 10 miles    
Events      
T = Trace of Precipitation, MM = Missing Value Source: NWS Daily Summary

Daily Weather History Graph

Daily Weather History Graph

Search for Another Location

Airport or City:

Trip Planner

Search our weather history database for the weather conditions in past years. The results will help you decide how hot, cold, wet, or windy it might be!

Date:

Astronomy

Mar. 19, 2013 Rise Set
Actual Time 7:50 AM MDT 7:57 PM MDT
Civil Twilight 7:21 AM MDT 8:26 PM MDT
Nautical Twilight 6:48 AM MDT 8:59 PM MDT
Astronomical Twilight 6:14 AM MDT 9:34 PM MDT
Moon 12:34 PM MDT (3/19) 2:58 AM MDT (3/19)
Length of Visible Light 13h 04m
Length of Day
12h 07m
Waxing Crescent, 50% of the Moon is Illuminated
Mar 19
Waxing Crescent
Mar 27
Full
Apr 2
Last Quarter
Apr 10
New
Apr 18
First Quarter

Hourly Weather History & Observations

Time (MDT) Temp. Windchill Dew Point Humidity Pressure Visibility Wind Dir Wind Speed Gust Speed Precip Events Conditions
12:15 AM 32.0 °F 28.7 °F 17.6 °F 55% 30.16 in 10.0 mi East 3.5 mph - N/A   Clear
12:35 AM 28.4 °F - 17.6 °F 64% 30.16 in 10.0 mi Calm Calm - N/A   Clear
12:55 AM 26.6 °F - 17.6 °F 69% 30.17 in 10.0 mi Calm Calm - N/A   Clear
1:15 AM 24.8 °F 19.1 °F 15.8 °F 69% 30.17 in 10.0 mi SSE 4.6 mph - N/A   Clear
1:35 AM 24.8 °F 20.5 °F 15.8 °F 69% 30.17 in 10.0 mi East 3.5 mph - N/A   Clear
1:55 AM 24.8 °F 20.5 °F 17.6 °F 74% 30.17 in 10.0 mi SE 3.5 mph - N/A   Clear
2:15 AM 24.8 °F 19.1 °F 15.8 °F 69% 30.18 in 10.0 mi SE 4.6 mph - N/A   Clear
2:35 AM 24.8 °F 20.5 °F 15.8 °F 69% 30.17 in 10.0 mi ESE 3.5 mph - N/A   Clear
2:55 AM 23.0 °F - 15.8 °F 74% 30.18 in 10.0 mi Calm Calm - N/A   Clear
3:15 AM 23.0 °F - 17.6 °F 80% 30.18 in 10.0 mi Calm Calm - N/A   Clear
3:35 AM 24.8 °F 20.5 °F 15.8 °F 69% 30.17 in 10.0 mi East 3.5 mph - N/A   Clear
3:55 AM 19.4 °F - 15.8 °F 86% 30.18 in 10.0 mi Calm Calm - N/A   Clear
4:15 AM 23.0 °F 17.0 °F 15.8 °F 74% 30.17 in 10.0 mi East 4.6 mph - N/A   Clear
4:35 AM 23.0 °F - 15.8 °F 74% 30.18 in 10.0 mi Calm Calm - N/A   Clear
4:55 AM 21.2 °F 14.9 °F 15.8 °F 80% 30.18 in 10.0 mi SSE 4.6 mph - N/A   Clear
5:15 AM 19.4 °F 12.8 °F 15.8 °F 86% 30.18 in 10.0 mi ESE 4.6 mph - N/A   Clear
5:35 AM 19.4 °F 14.3 °F 15.8 °F 86% 30.18 in 10.0 mi SE 3.5 mph - N/A   Clear
5:55 AM 23.0 °F - 15.8 °F 74% 30.18 in 10.0 mi Calm Calm - N/A   Clear
6:15 AM 21.2 °F 16.4 °F 15.8 °F 80% 30.19 in 10.0 mi ESE 3.5 mph - N/A   Clear
6:35 AM 23.0 °F - 15.8 °F 74% 30.19 in 10.0 mi Calm Calm - N/A   Clear
6:55 AM 19.4 °F - 14.0 °F 80% 30.20 in 10.0 mi Calm Calm - N/A   Clear
7:15 AM 19.4 °F 12.8 °F 14.0 °F 80% 30.21 in 10.0 mi SE 4.6 mph - N/A   Clear
7:35 AM 17.6 °F 12.3 °F 15.8 °F 93% 30.22 in 10.0 mi ESE 3.5 mph - N/A   Clear
7:55 AM 21.2 °F 16.4 °F 15.8 °F 80% 30.22 in 10.0 mi ESE 3.5 mph - N/A   Clear
8:15 AM 23.0 °F 17.0 °F 15.8 °F 74% 30.23 in 10.0 mi SE 4.6 mph - N/A   Clear
8:55 AM 28.4 °F 24.6 °F 19.4 °F 69% 30.24 in 10.0 mi SE 3.5 mph - N/A   Clear
9:15 AM 32.0 °F 27.5 °F 21.2 °F 64% 30.24 in 10.0 mi SSE 4.6 mph - N/A   Clear
9:55 AM 39.2 °F 33.6 °F 17.6 °F 42% 30.24 in 10.0 mi SSE 8.1 mph - N/A   Clear
10:15 AM 39.2 °F 34.2 °F 17.6 °F 42% 30.24 in 10.0 mi SSE 6.9 mph - N/A   Clear
10:35 AM 41.0 °F 38.0 °F 19.4 °F 42% 30.24 in 10.0 mi SSE 4.6 mph - N/A   Clear
10:55 AM 44.6 °F 41.4 °F 19.4 °F 37% 30.23 in 10.0 mi SSE 5.8 mph - N/A   Clear
11:15 AM 46.4 °F 41.9 °F 15.8 °F 29% 30.23 in 10.0 mi ESE 9.2 mph 16.1 mph N/A   Clear
11:35 AM 48.2 °F - 15.8 °F 27% 30.22 in 10.0 mi ESE 10.4 mph - N/A   Clear
11:55 AM 48.2 °F - 15.8 °F 27% 30.22 in 10.0 mi SSE 6.9 mph - N/A   Clear
12:15 PM 50.0 °F - 15.8 °F 26% 30.21 in 10.0 mi ESE 6.9 mph - N/A   Partly Cloudy
12:35 PM 50.0 °F - 12.2 °F 22% 30.20 in 10.0 mi SSE 8.1 mph - N/A   Partly Cloudy
12:55 PM 51.8 °F - 12.2 °F 21% 30.19 in 10.0 mi SSE 8.1 mph - N/A   Scattered Clouds
1:15 PM 51.8 °F - 14.0 °F 22% 30.19 in 10.0 mi SSE 6.9 mph - N/A   Partly Cloudy
1:35 PM 53.6 °F - 14.0 °F 21% 30.18 in 10.0 mi SSE 4.6 mph - N/A   Clear
1:55 PM 53.6 °F - 14.0 °F 21% 30.17 in 10.0 mi SSE 6.9 mph 17.3 mph N/A   Scattered Clouds
2:15 PM 55.4 °F - 10.4 °F 17% 30.16 in 10.0 mi SSE 8.1 mph - N/A   Scattered Clouds
2:35 PM 57.2 °F - 8.6 °F 14% 30.14 in 10.0 mi South 11.5 mph 16.1 mph N/A   Partly Cloudy
2:55 PM 57.2 °F - 8.6 °F 14% 30.12 in 10.0 mi South 9.2 mph - N/A   Scattered Clouds
3:15 PM 57.2 °F - 6.8 °F 13% 30.11 in 10.0 mi SE 12.7 mph 19.6 mph N/A   Partly Cloudy
3:35 PM 57.2 °F - 5.0 °F 12% 30.10 in 10.0 mi SSE 11.5 mph 20.7 mph N/A   Clear
3:55 PM 57.2 °F - 5.0 °F 12% 30.09 in 10.0 mi SSE 11.5 mph 18.4 mph N/A   Clear
4:15 PM 59.0 °F - 6.8 °F 13% 30.08 in 10.0 mi ESE 10.4 mph 19.6 mph N/A   Clear
4:35 PM 59.0 °F - 6.8 °F 13% 30.08 in 10.0 mi SSE 12.7 mph 17.3 mph N/A   Clear
4:55 PM 59.0 °F - 5.0 °F 12% 30.07 in 10.0 mi SSE 13.8 mph 19.6 mph N/A   Clear
5:15 PM 59.0 °F - 5.0 °F 12% 30.06 in 10.0 mi SE 17.3 mph - N/A   Scattered Clouds
5:35 PM 59.0 °F - 5.0 °F 12% 30.05 in 10.0 mi SSE 15.0 mph - N/A   Mostly Cloudy
5:55 PM 59.0 °F - 1.4 °F 10% 30.03 in 10.0 mi SSE 11.5 mph 19.6 mph N/A   Scattered Clouds
6:15 PM 57.2 °F - 3.2 °F 11% 30.02 in 10.0 mi SE 12.7 mph 18.4 mph N/A   Scattered Clouds
6:35 PM 57.2 °F - 1.4 °F 10% 30.01 in 10.0 mi SE 13.8 mph 19.6 mph N/A   Overcast
6:55 PM 55.4 °F - -0.4 °F 10% 30.01 in 10.0 mi SE 11.5 mph - N/A   Scattered Clouds
7:35 PM 55.4 °F - 1.4 °F 11% 30.00 in 10.0 mi SSE 9.2 mph - N/A   Mostly Cloudy
7:55 PM 53.6 °F - 1.4 °F 12% 29.99 in 10.0 mi SSE 10.4 mph - N/A   Overcast
8:15 PM 53.6 °F - 1.4 °F 12% 29.98 in 10.0 mi SSE 10.4 mph 16.1 mph N/A   Overcast
8:35 PM 53.6 °F - 5.0 °F 14% 29.98 in 10.0 mi South 9.2 mph - N/A   Overcast
8:55 PM 51.8 °F - 3.2 °F 14% 29.98 in 10.0 mi South 9.2 mph - N/A   Mostly Cloudy
9:15 PM 53.6 °F - 1.4 °F 12% 29.97 in 10.0 mi South 10.4 mph - N/A   Mostly Cloudy
9:35 PM 51.8 °F - 1.4 °F 13% 29.96 in 10.0 mi SSE 11.5 mph - N/A   Mostly Cloudy
9:55 PM 51.8 °F - 5.0 °F 15% 29.96 in 10.0 mi SSE 10.4 mph 16.1 mph N/A   Mostly Cloudy
10:15 PM 51.8 °F - 5.0 °F 15% 29.96 in 10.0 mi SSE 10.4 mph 16.1 mph N/A   Overcast
10:35 PM 51.8 °F - 5.0 °F 15% 29.96 in 10.0 mi South 10.4 mph - N/A   Overcast
10:55 PM 53.6 °F - 5.0 °F 14% 29.97 in 10.0 mi SSE 8.1 mph - N/A   Overcast
11:15 PM 51.8 °F - 6.8 °F 16% 29.96 in 10.0 mi SSE 6.9 mph - N/A   Overcast
11:35 PM 53.6 °F - 6.8 °F 15% 29.95 in 10.0 mi SSE 6.9 mph - N/A   Overcast
11:55 PM 50.0 °F - 8.6 °F 19% 29.94 in 10.0 mi SE 6.9 mph - N/A   Overcast